EW4694 Weather Reports


time (UTC)temp
C
wind
direction
speed
KPH
gust
KPH
rain 1hr
cm
rain 24hr
cm
rain mn
cm
humidity
%
barometer
mb
20260510071515 8 131 0.0 0.0 0.00 0.00 0.00 1 1012.1
20260510070010 8 131 0.0 0.0 0.00 0.00 0.00 1 1012.1
20260510064507 8 131 0.0 0.0 0.00 0.00 0.00 1 1012.0
20260510063002 8 131 0.0 0.0 0.00 0.00 0.00 1 1012.1
20260510061557 8 131 0.0 0.0 0.00 0.00 0.00 1 1012.2
20260510060057 8 131 0.0 0.0 0.00 0.00 0.00 1 1012.1
20260510054549 8 131 0.0 0.0 0.00 0.00 0.00 1 1012.2
20260510053032 8 131 0.0 0.0 0.00 0.00 0.00 1 1012.4
20260510051524 8 131 0.0 0.0 0.00 0.00 0.00 1 1012.4
20260510050002 8 131 0.0 0.0 0.00 0.00 0.00 1 1012.4
20260510044557 8 131 0.0 0.0 0.00 0.00 0.00 1 1012.3
20260510043047 8 131 0.0 0.0 0.00 0.00 0.00 1 1012.2
20260510041533 8 131 0.0 0.0 0.00 0.00 0.00 1 1012.2
20260510040010 8 131 0.0 0.0 0.00 0.00 0.00 1 1012.0
20260510034506 8 130 0.0 0.0 0.00 0.00 0.00 1 1011.8
20260510033053 9 105 0.0 0.0 0.00 0.00 0.00 1 1011.9
20260510031618 9 104 0.0 0.0 0.00 0.00 0.00 1 1011.6
20260510030041 9 104 0.0 0.0 0.00 0.00 0.00 1 1011.6
20260510024538 10 104 0.0 0.0 0.00 0.00 0.00 1 1011.6
20260510023043 10 104 0.0 0.0 0.00 0.00 0.00 3 1011.3
20260510021527 10 104 0.0 0.0 0.00 0.00 0.00 8 1011.2
20260510020023 11 104 0.0 0.0 0.00 0.00 0.00 14 1011.0
20260510014520 11 103 0.0 0.0 0.00 0.00 0.00 27 1010.6
20260510013058 12 103 0.0 0.0 0.00 0.00 0.00 32 1010.4
20260510011608 13 103 0.0 0.0 0.00 0.00 0.00 43 1010.3
20260510010034 14 103 0.0 0.0 0.00 0.00 0.00 54 1010.0
20260510004630 15 103 0.0 0.0 0.00 0.00 0.00 61 1009.9
20260510003006 17 74 0.0 0.0 0.00 0.00 0.00 65 1009.7
20260510001506 18 213 0.0 0.0 0.00 0.00 0.00 63 1009.3
20260510000055 18 213 0.0 0.0 0.00 0.00 0.00 62 1009.2
20260509234601 19 280 0.0 0.0 0.00 0.00 0.00 61 1009.1
20260509233057 20 277 0.0 0.0 0.00 0.00 0.00 58 1008.9
20260509231559 20 260 0.0 0.0 0.00 0.00 0.00 57 1008.9
20260509230045 20 277 0.0 6.4 0.00 0.00 0.00 56 1008.9
20260509224541 20 292 0.0 0.0 0.00 0.00 0.00 58 1009.2
20260509223038 20 259 0.0 0.0 0.00 0.00 0.00 57 1009.3
20260509221537 20 268 0.0 1.6 0.00 0.00 0.00 57 1009.4
20260509220011 20 277 0.0 0.0 0.00 0.00 0.00 55 1009.4
20260509214506 20 281 0.0 0.0 0.00 0.00 0.00 58 1009.4
20260509213059 19 267 0.0 0.0 0.00 0.00 0.00 60 1009.5
20260509211606 20 265 0.0 0.0 0.00 0.00 0.00 59 1009.5
20260509210019 19 282 0.0 0.0 0.00 0.00 0.00 59 1009.6
20260509204515 20 304 0.0 0.0 0.00 0.00 0.00 56 1009.4
20260509203113 19 275 0.0 3.2 0.00 0.00 0.00 58 1009.3
20260509201549 19 271 0.0 1.6 0.00 0.00 0.00 57 1009.5
20260509200045 19 194 0.0 1.6 0.00 0.00 0.00 58 1009.7
20260509194522 19 265 0.0 0.0 0.00 0.00 0.00 58 1009.8
20260509193019 19 275 0.0 6.4 0.00 0.00 0.00 57 1009.9
20260509191559 19 236 0.0 4.8 0.00 0.00 0.00 59 1009.9
20260509190100 18 247 0.0 6.4 0.00 0.00 0.00 58 1009.9
20260509184530 18 289 0.0 1.6 0.00 0.00 0.00 56 1009.8
20260509183027 18 302 0.0 0.0 0.00 0.00 0.00 57 1009.9
20260509181505 19 275 0.0 0.0 0.00 0.00 0.00 59 1009.7
20260509180001 18 284 0.0 0.0 0.00 0.00 0.00 59 1009.7
20260509174541 18 281 0.0 0.0 0.00 0.00 0.00 61 1010.0
20260509173035 17 284 0.0 0.0 0.00 0.00 0.00 61 1010.1
20260509171512 17 275 0.0 0.0 0.00 0.00 0.00 60 1010.2
20260509170008 17 274 0.0 0.0 0.00 0.00 0.00 61 1010.4
20260509164547 16 286 0.0 1.6 0.00 0.00 0.00 63 1010.3
20260509163054 16 126 0.0 0.0 0.00 0.00 0.00 66 1010.4
20260509161521 16 79 0.0 0.0 0.00 0.00 0.00 65 1010.2
20260509160016 15 136 0.0 0.0 0.00 0.00 0.00 66 1010.4
20260509154554 15 142 0.0 0.0 0.00 0.00 0.00 66 1010.4
20260509153052 15 121 0.0 0.0 0.00 0.00 0.00 65 1010.4
20260509151528 15 138 0.0 0.0 0.00 0.00 0.00 63 1010.7
20260509150024 15 180 0.0 0.0 0.00 0.00 0.00 64 1011.0
20260509144503 15 209 0.0 0.0 0.00 0.00 0.00 62 1010.9
20260509143109 15 180 0.0 0.0 0.00 0.00 0.00 63 1010.9
20260509141537 14 139 0.0 0.0 0.00 0.00 0.00 59 1010.9
20260509140032 13 137 0.0 0.0 0.00 0.00 0.00 56 1010.9
20260509134511 12 181 0.0 0.0 0.00 0.00 0.00 38 1011.1
20260509133007 12 181 0.0 0.0 0.00 0.00 0.00 22 1011.2
20260509131545 12 181 0.0 0.0 0.00 0.00 0.00 10 1011.5
20260509130044 11 150 0.0 0.0 0.00 0.00 0.00 1 1011.5
20260509124522 11 150 0.0 0.0 0.00 0.00 0.00 1 1011.6
20260509123016 10 150 0.0 0.0 0.00 0.00 0.00 1 1011.5
20260509121512 10 151 0.0 0.0 0.00 0.00 0.00 1 1011.6
20260509120014 10 219 0.0 0.0 0.00 0.00 0.00 1 1011.5
20260509114503 10 198 0.0 0.0 0.00 0.00 0.00 1 1011.5
20260509113100 10 207 0.0 0.0 0.00 0.00 0.00 1 1011.4
20260509111557 -17 0.0 0.0 0.00 0.00 0.00 1011.4
20260509110057 -17 0.0 0.0 0.00 0.00 0.00 1011.3
20260509104548 -17 0.0 0.0 0.00 0.00 0.00 1011.1
20260509103043 -17 0.0 0.0 0.00 0.00 0.00 1011.1
20260509101542 -17 0.0 0.0 0.00 0.00 0.00 1011.1
20260509100039 -17 0.0 0.0 0.00 0.00 0.00 1011.2
20260509094536 -17 0.0 0.0 0.00 0.00 0.00 1011.3
20260509093029 10 293 0.0 0.0 0.00 0.00 0.00 1 1011.5
20260509091549 10 293 0.0 0.0 0.00 0.00 0.00 1 1011.7
20260509090041 10 293 0.0 0.0 0.00 0.00 0.00 1 1011.7
20260509084540 10 293 0.0 0.0 0.00 0.00 0.00 1 1011.7
20260509083033 10 293 0.0 0.0 0.00 0.00 0.00 1 1011.5
20260509081518 10 293 0.0 0.0 0.00 0.00 0.00 1 1011.8
20260509080022 10 293 0.0 0.0 0.00 0.00 0.00 1 1011.7
20260509074508 10 293 0.0 0.0 0.00 0.00 0.00 5 1011.4
20260509073006 10 293 0.0 0.0 0.00 0.00 0.00 8 1011.2